Weather History for Istanbul, Turkey

Change the Weather History Date:

Monday, October 15, 2012

  Actual Average Record
Temperature  
Mean Temperature 74 °F -  
Max Temperature 81 °F 62 °F 81 °F (2012)
Min Temperature 67 °F 51 °F 50 °F (2007)
Cooling Degree Days 9    
Growing Degree Days 24 (Base 50)    
Moisture  
Dew Point 60 °F    
Average Humidity 64    
Maximum Humidity 94    
Minimum Humidity 35    
Precipitation  
Precipitation 0.00 in - - ()
Sea Level Pressure  
Sea Level Pressure 29.99 in    
Wind  
Wind Speed 5 mph ()    
Max Wind Speed 12 mph    
Max Gust Speed -    
Visibility 7.5 miles    
Events      
Averages and records for this station are not official NWS values.
T = Trace of Precipitation, MM = Missing Value Source: Averaged Metar Reports

Daily Weather History Graph

Daily Weather History Graph

Search for Another Location

Airport:

Trip Planner

Search our weather history database for the weather conditions in past years. The results will help you decide how hot, cold, wet, or windy it might be!

Date:

Astronomy

Oct. 15, 2012 Rise Set
Actual Time 7:16 AM EEST 6:23 PM EEST
Civil Twilight 6:48 AM EEST 6:51 PM EEST
Nautical Twilight 6:16 AM EEST 7:23 PM EEST
Astronomical Twilight 5:44 AM EEST 7:55 PM EEST
Moon 7:03 AM EEST (10/15) 6:09 PM EEST (10/15)
Length of Visible Light 12h 02m
Length of Day
11h 07m
Waning Crescent, 0% of the Moon is Illuminated
Oct 15
Waning Crescent
Oct 15
New
Oct 22
First Quarter
Oct 29
Full
Nov 7
Last Quarter

Hourly Weather History & Observations

Time (EEST) Temp. Heat Index Dew Point Humidity Pressure Visibility Wind Dir Wind Speed Gust Speed Precip Events Conditions
12:20 AM 71.6 °F - 60.8 °F 69% 29.98 in - SE 3.5 mph - N/A   Clear
12:50 AM 69.8 °F - 62.6 °F 78% 29.98 in - South 4.6 mph - N/A   Clear
1:20 AM 69.8 °F - 60.8 °F 73% 29.98 in - SW 3.5 mph - N/A   Clear
1:50 AM 69.8 °F - 62.6 °F 78% 29.98 in - SSW 3.5 mph - N/A   Clear
2:20 AM 68.0 °F - 66.2 °F 94% 29.98 in - SSW 2.3 mph - N/A   Clear
2:50 AM 69.8 °F - 66.2 °F 88% 29.98 in - South 3.5 mph - N/A   Clear
3:00 AM 69 °F - 67 °F 90% 29.97 in 6 mi South 3.5 mph - -  
3:20 AM 68.0 °F - 66.2 °F 94% 29.95 in - SSW 4.6 mph - N/A   Clear
3:50 AM 68.0 °F - 66.2 °F 94% 29.95 in - SSW 5.8 mph - N/A   Clear
4:20 AM 69.8 °F - 66.2 °F 88% 29.95 in - SSW 5.8 mph - N/A   Clear
4:50 AM 69.8 °F - 64.4 °F 83% 29.95 in - SW 4.6 mph - N/A   Clear
5:20 AM 69.8 °F - 62.6 °F 78% 29.95 in - SW 3.5 mph - N/A   Clear
5:50 AM 69.8 °F - 64.4 °F 83% 29.95 in - Variable 2.3 mph - N/A   Clear
6:20 AM 68.0 °F - 66.2 °F 94% 29.98 in - ESE 4.6 mph - N/A   Clear
6:50 AM 69.8 °F - 66.2 °F 88% 29.98 in - SE 4.6 mph - N/A   Clear
7:20 AM 69.8 °F - 64.4 °F 83% 29.95 in - East 5.8 mph - N/A   Clear
7:50 AM 69.8 °F - 62.6 °F 78% 29.95 in - ESE 6.9 mph - N/A   Clear
8:20 AM 71.6 °F - 60.8 °F 69% 29.98 in - SE 6.9 mph - N/A   Clear
8:50 AM 73.4 °F - 59.0 °F 61% 29.98 in - ESE 9.2 mph - N/A   Clear
9:00 AM 73 °F - 59 °F 51% 29.98 in 12 mi ESE 9.2 mph - -   Mostly Cloudy
9:20 AM 75.2 °F - 57.2 °F 53% 29.98 in - SE 9.2 mph - N/A   Clear
9:50 AM 75.2 °F - 57.2 °F 53% 29.98 in - SE 11.5 mph - N/A   Clear
10:20 AM 75.2 °F - 59.0 °F 57% 29.98 in - SSE 6.9 mph - N/A   Clear
10:50 AM 75.2 °F - 60.8 °F 61% 30.01 in - South 6.9 mph - N/A   Clear
11:20 AM 75.2 °F - 59.0 °F 57% 30.01 in - SW 4.6 mph - N/A   Clear
11:50 AM 77.0 °F - 59.0 °F 54% 30.01 in - SW 9.2 mph - N/A   Clear
12:20 PM 77.0 °F - 57.2 °F 50% 30.01 in - SSW 8.1 mph - N/A   Clear
12:50 PM 77.0 °F - 55.4 °F 47% 30.01 in - SW 6.9 mph - N/A   Clear
1:20 PM 77.0 °F - 57.2 °F 50% 30.01 in - WSW 5.8 mph - N/A   Clear
1:50 PM 77.0 °F - 59.0 °F 54% 30.01 in - WSW 9.2 mph - N/A   Clear
2:20 PM 77.0 °F - 59.0 °F 54% 30.01 in - WSW 9.2 mph - N/A   Clear
2:50 PM 78.8 °F - 57.2 °F 47% 30.01 in - West 9.2 mph - N/A   Clear
3:00 PM 80 °F - 57 °F 35% 30.00 in 6 mi West 9.2 mph - -  
3:20 PM 80.6 °F 80.5 °F 55.4 °F 42% 29.98 in - West 8.1 mph - N/A   Clear
3:50 PM 80.6 °F 80.5 °F 55.4 °F 42% 29.98 in - WSW 4.6 mph - N/A   Clear
4:20 PM 78.8 °F - 57.2 °F 47% 29.98 in - Variable 2.3 mph - N/A   Clear
4:50 PM 80.6 °F 80.5 °F 55.4 °F 42% 29.98 in - South 3.5 mph - N/A   Clear
5:20 PM 80.6 °F 80.3 °F 53.6 °F 39% 29.98 in - Variable 2.3 mph - N/A   Clear
5:50 PM 78.8 °F - 55.4 °F 44% 29.98 in - Variable 2.3 mph - N/A   Clear
6:20 PM 77.0 °F - 55.4 °F 47% 29.98 in - South 3.5 mph - N/A   Clear
6:50 PM 75.2 °F - 59.0 °F 57% 29.98 in - SE 4.6 mph - N/A   Clear
7:20 PM 73.4 °F - 60.8 °F 65% 29.98 in - SSE 3.5 mph - N/A   Clear
7:50 PM 73.4 °F - 59.0 °F 61% 29.98 in - ESE 4.6 mph - N/A   Clear
8:20 PM 73.4 °F - 60.8 °F 65% 30.01 in - SSE 3.5 mph - N/A   Clear
8:50 PM 75.2 °F - 60.8 °F 61% 30.01 in - SE 5.8 mph - N/A   Clear
9:00 PM 75 °F - 60 °F 49% 30.01 in 6 mi SE 5.8 mph - -  
9:20 PM 75.2 °F - 57.2 °F 53% 30.01 in - Variable 2.3 mph - N/A   Clear
9:50 PM 73.4 °F - 59.0 °F 61% 30.01 in - Variable 2.3 mph - N/A   Clear
10:20 PM 73.4 °F - 59.0 °F 61% 30.01 in - Variable 1.2 mph - N/A   Clear
10:50 PM 69.8 °F - 57.2 °F 64% 30.04 in - Calm Calm - N/A   Clear
11:20 PM 71.6 °F - 57.2 °F 60% 30.04 in - SSE 3.5 mph - N/A   Clear
11:50 PM 71.6 °F - 59.0 °F 64% 30.04 in - Variable 1.2 mph - N/A   Clear